彩虹 14星 (RADUGA 14)

导读 | 豆包AI

RADUGA 14是苏联解体后独立国家联合体(CIS)继承航天遗产框架下发射的“虹”(Raduga)系列通信卫星,1984年2月15日发射入轨。该卫星属于第一代“虹”系列地球同步轨道通信卫星,采用KAUR-3平台研制,主要承担军事通信、民用电话电报传输及电视转播任务,覆盖东半球大部分区域,设计寿命约3年,为早期苏联-独联体的天地通信体系提供支撑。

Basic Information
目录编号:
14725
目录名称:
RADUGA 14
国际标识:
1984-016A
轨道中心:
EARTH
卫星名称:
彩虹 14星
卫星全名:
彩虹 14星 (RADUGA 14)
卫星状态:
在轨 (已飞行15413 天)
发射日期:
1984-02-15 UTC
国别 :
俄罗斯(独联体) (CIS)
星等 :
--
Orbit Information
数据来源 国际轨道数据 AOE轨道数据
星历时间 2026-04-28T20:08:00+0800
9小时前
查看轨道信息
2026-04-28T09:00:00+0800
20小时前
查看轨道信息
半长轴 42157.077km 42157.189km
偏心率 0.0001526 0.0001942
轨道倾角 8.667° 8.668°
近地点辐角 137.074° 138.646°
升交点赤经 311.144° 311.145°
平近点角 26.407° 217.326°
近地点 35772.506km 35770.865km
远地点 35785.374km 35787.239km
周期 1435.706分钟 1435.712分钟
每日圈数 1.002991 1.002987
Detailed Information
平衡模式:
三轴稳定
覆盖范围:
全球
运营商:
俄罗斯国家航天集团
运营商所在国:
俄罗斯
制造商(研发单位):
普里克拉德诺伊·梅哈尼基设计局
制造商所在国:
俄罗斯联邦
使用方式:
暂无
Satellite Introduction
彩虹卫星(Raduga, Gran)是苏联用于军事和通信目的的一系列地球静止通信卫星。彩虹卫星旨在支持军事通信、Orbita地面电视网络,并在整个东半球(极地地区除外)提供电话和电报通信。该卫星已退役。
2D Orbit Map
3D Orbit Map
Orbit Altitude Analysis Chart
Orbit Inclination Analysis Chart
Orbit Comprehensive Analysis Chart
View Comprehensive Chart